EW1296 Weather Reports


time (UTC)temp
C
wind
direction
speed
KPH
gust
KPH
rain 1hr
cm
rain 24hr
cm
rain mn
cm
humidity
%
barometer
mb
20260504195016 24 180 4.8 12.9 0.00 0.00 0.00 34 1009.9
20260504194516 23 225 6.4 17.7 0.00 0.00 0.00 33 1009.9
20260504194016 23 225 9.7 20.9 0.00 0.00 0.00 32 1010.0
20260504193516 23 225 6.4 19.3 0.00 0.00 0.00 32 1010.0
20260504193016 23 225 12.9 27.4 0.00 0.00 0.00 33 1010.1
20260504192516 23 225 12.9 29.0 0.00 0.00 0.00 33 1010.0
20260504192036 23 225 11.3 27.4 0.00 0.00 0.00 32 1010.2
20260504191516 23 225 8.0 24.1 0.00 0.00 0.00 34 1010.2
20260504191018 23 203 9.7 22.5 0.00 0.00 0.00 33 1010.3
20260504190516 23 225 8.0 20.9 0.00 0.00 0.00 34 1010.3
20260504190016 23 225 9.7 20.9 0.00 0.00 0.00 34 1010.5
20260504185516 22 225 8.0 25.7 0.00 0.00 0.00 34 1010.5
20260504185017 22 225 8.0 20.9 0.00 0.00 0.00 33 1010.7
20260504184516 22 225 9.7 19.3 0.00 0.00 0.00 33 1010.8
20260504184016 22 225 9.7 24.1 0.00 0.00 0.00 34 1010.9
20260504183537 22 225 9.7 22.5 0.00 0.00 0.00 35 1010.9
20260504183016 22 225 11.3 20.9 0.00 0.00 0.00 34 1010.8
20260504182517 22 225 11.3 22.5 0.00 0.00 0.00 34 1011.0
20260504182016 22 225 8.0 20.9 0.00 0.00 0.00 36 1011.0
20260504181516 22 225 9.7 22.5 0.00 0.00 0.00 34 1011.1
20260504181017 22 225 11.3 29.0 0.00 0.00 0.00 36 1011.0
20260504180516 22 225 11.3 20.9 0.00 0.00 0.00 35 1011.1
20260504180016 22 203 12.9 25.7 0.00 0.00 0.00 35 1011.3
20260504175516 22 225 11.3 20.9 0.00 0.00 0.00 34 1011.3
20260504175016 22 225 11.3 24.1 0.00 0.00 0.00 35 1011.4
20260504174517 22 225 8.0 25.7 0.00 0.00 0.00 36 1011.4
20260504174017 22 225 8.0 25.7 0.00 0.00 0.00 36 1011.5
20260504173516 22 225 9.7 25.7 0.00 0.00 0.00 35 1011.5
20260504173016 21 225 8.0 19.3 0.00 0.00 0.00 36 1011.5
20260504172516 21 225 14.5 27.4 0.00 0.00 0.00 35 1011.5
20260504172037 21 225 11.3 29.0 0.00 0.00 0.00 36 1011.6
20260504171557 21 225 12.9 24.1 0.00 0.00 0.00 36 1011.7
20260504171016 21 225 14.5 29.0 0.00 0.00 0.00 36 1011.7
20260504170535 21 203 9.7 19.3 0.00 0.00 0.00 37 1011.8
20260504151016 19 225 12.9 25.7 0.00 0.00 0.00 39 1013.4
20260504150517 19 225 8.0 22.5 0.00 0.00 0.00 40 1013.4
20260504141015 17 225 12.9 27.4 0.00 0.00 0.00 47 1013.6
20260504140537 17 203 11.3 20.9 0.00 0.00 0.00 47 1013.5
20260504130535 15 203 8.0 20.9 0.00 0.00 0.00 55 1014.1
20260504110518 11 225 8.0 22.5 0.00 0.00 0.00 64 1014.3
20260504100517 10 225 8.0 16.1 0.00 0.00 0.00 59 1014.3
20260504081517 11 203 3.2 12.9 0.00 0.00 0.00 49 1013.9
20260504081017 11 203 4.8 8.0 0.00 0.00 0.00 49 1013.9
20260504080518 11 225 6.4 14.5 0.00 0.00 0.00 48 1013.8
20260504050537 12 225 6.4 12.9 0.00 0.00 0.00 46 1013.2
20260504050018 12 225 8.0 16.1 0.00 0.00 0.00 46 1013.2
20260504045517 12 248 8.0 19.3 0.00 0.00 0.00 46 1013.1
20260504045018 12 225 6.4 14.5 0.00 0.00 0.00 46 1013.1
20260504044517 12 248 8.0 16.1 0.00 0.00 0.00 46 1013.1
20260504044018 12 225 8.0 17.7 0.00 0.00 0.00 45 1013.1
20260504043517 12 225 4.8 14.5 0.00 0.00 0.00 45 1013.0
20260504043017 12 225 6.4 14.5 0.00 0.00 0.00 45 1013.0
20260504042517 12 248 8.0 16.1 0.00 0.00 0.00 45 1012.9
20260504042056 12 225 8.0 14.5 0.00 0.00 0.00 45 1013.0
20260504041516 12 225 6.4 12.9 0.00 0.00 0.00 44 1013.0
20260504041017 12 248 8.0 14.5 0.00 0.00 0.00 44 1012.9
20260504040517 12 225 6.4 17.7 0.00 0.00 0.00 44 1012.9
20260504040016 12 248 6.4 16.1 0.00 0.00 0.00 44 1012.9
20260504035518 12 225 6.4 16.1 0.00 0.00 0.00 44 1012.9
20260504035017 12 248 6.4 16.1 0.00 0.00 0.00 44 1012.8
20260504034517 12 248 6.4 12.9 0.00 0.00 0.00 44 1012.8
20260504034038 12 225 6.4 12.9 0.00 0.00 0.00 43 1012.8
20260504033517 12 225 8.0 16.1 0.00 0.00 0.00 43 1012.9
20260504033017 12 248 8.0 16.1 0.00 0.00 0.00 43 1012.8
20260504032517 13 248 6.4 14.5 0.00 0.00 0.00 42 1012.7
20260504032017 13 248 8.0 16.1 0.00 0.00 0.00 42 1012.7
20260504031518 13 225 4.8 9.7 0.00 0.00 0.00 42 1012.6
20260504031017 13 225 4.8 12.9 0.00 0.00 0.00 41 1012.6
20260504030517 13 248 6.4 14.5 0.00 0.00 0.00 41 1012.7
20260504030017 13 248 6.4 19.3 0.00 0.00 0.00 41 1012.6
20260504025517 13 248 8.0 17.7 0.00 0.00 0.00 41 1012.6
20260504025038 13 248 8.0 16.1 0.00 0.00 0.00 41 1012.6
20260504024537 13 225 6.4 16.1 0.00 0.00 0.00 40 1012.7
20260504024017 13 225 8.0 16.1 0.00 0.00 0.00 40 1012.6
20260504023517 13 225 4.8 12.9 0.00 0.00 0.00 40 1012.7
20260504023037 13 225 6.4 12.9 0.00 0.00 0.00 40 1012.6
20260504022517 13 225 4.8 14.5 0.00 0.00 0.00 39 1012.7
20260504022037 13 225 3.2 9.7 0.00 0.00 0.00 39 1012.7
20260504021517 13 225 4.8 12.9 0.00 0.00 0.00 38 1012.7
20260504021017 13 248 6.4 17.7 0.00 0.00 0.00 38 1012.7
20260504020517 13 225 8.0 19.3 0.00 0.00 0.00 38 1012.7
20260504020017 13 225 6.4 14.5 0.00 0.00 0.00 38 1012.7
20260504015518 13 225 4.8 12.9 0.00 0.00 0.00 38 1012.7
20260504015017 14 225 4.8 14.5 0.00 0.00 0.00 37 1012.7
20260504014517 14 225 4.8 12.9 0.00 0.00 0.00 36 1012.6
20260504014017 14 225 4.8 12.9 0.00 0.00 0.00 36 1012.5
20260504013518 14 248 4.8 12.9 0.00 0.00 0.00 36 1012.4
20260504013037 14 248 6.4 12.9 0.00 0.00 0.00 36 1012.4
20260504012518 14 248 4.8 9.7 0.00 0.00 0.00 36 1012.3
20260504012017 14 248 6.4 12.9 0.00 0.00 0.00 35 1012.3
20260504011558 14 248 4.8 8.0 0.00 0.00 0.00 35 1012.2
20260504011038 14 248 4.8 9.7 0.00 0.00 0.00 35 1012.1
20260504010517 14 248 3.2 8.0 0.00 0.00 0.00 35 1012.1
20260504010018 15 248 6.4 12.9 0.00 0.00 0.00 34 1012.0
20260504005517 15 248 4.8 9.7 0.00 0.00 0.00 34 1012.0
20260504005016 15 225 3.2 11.3 0.00 0.00 0.00 33 1011.9
20260504004517 15 248 3.2 12.9 0.00 0.00 0.00 33 1011.9
20260504004018 15 248 3.2 9.7 0.00 0.00 0.00 33 1011.8
20260504003517 15 248 4.8 9.7 0.00 0.00 0.00 33 1011.7
20260504003017 15 248 4.8 11.3 0.00 0.00 0.00 33 1011.6
20260504002517 15 248 4.8 11.3 0.00 0.00 0.00 33 1011.6
20260504002017 15 248 4.8 11.3 0.00 0.00 0.00 32 1011.5
20260504001517 15 225 4.8 14.5 0.00 0.00 0.00 32 1011.4
20260504001017 15 248 4.8 11.3 0.00 0.00 0.00 32 1011.3
20260504000516 15 270 3.2 9.7 0.00 0.00 0.00 31 1011.2
20260504000017 15 248 8.0 14.5 0.00 0.00 0.00 31 1011.2
20260503235516 15 270 6.4 16.1 0.00 0.00 0.00 31 1011.2
20260503235017 16 270 8.0 17.7 0.00 0.00 0.00 30 1011.2
20260503234517 16 248 6.4 16.1 0.00 0.00 0.00 30 1011.0
20260503234017 16 270 6.4 16.1 0.00 0.00 0.00 30 1011.0
20260503233517 16 270 4.8 11.3 0.00 0.00 0.00 31 1010.9
20260503233017 16 270 6.4 16.1 0.00 0.00 0.00 31 1010.9
20260503232518 16 315 8.0 16.1 0.00 0.00 0.00 29 1010.8
20260503232016 16 293 4.8 16.1 0.00 0.00 0.00 29 1010.8
20260503231516 16 270 4.8 12.9 0.00 0.00 0.00 29 1010.7
20260503231016 16 315 6.4 17.7 0.00 0.00 0.00 29 1010.7
20260503230517 16 315 6.4 17.7 0.00 0.00 0.00 30 1010.6
20260503230016 16 338 4.8 9.7 0.00 0.00 0.00 30 1010.7
20260503225539 16 270 4.8 11.3 0.00 0.00 0.00 29 1010.7
20260503225018 16 315 8.0 22.5 0.00 0.00 0.00 28 1010.6
20260503224517 16 315 8.0 20.9 0.00 0.00 0.00 27 1010.6
20260503224017 16 293 9.7 17.7 0.00 0.00 0.00 27 1010.6
20260503223518 16 0 9.7 19.3 0.00 0.00 0.00 27 1010.6
20260503223018 16 293 9.7 17.7 0.00 0.00 0.00 27 1010.5
20260503222517 16 338 11.3 25.7 0.00 0.00 0.00 26 1010.5
20260503222016 16 338 8.0 20.9 0.00 0.00 0.00 27 1010.4
20260503221516 16 293 8.0 20.9 0.00 0.00 0.00 27 1010.5
20260503221036 16 315 11.3 24.1 0.00 0.00 0.00 26 1010.4
20260503220516 16 315 9.7 20.9 0.00 0.00 0.00 26 1010.5
20260503220017 16 270 11.3 25.7 0.00 0.00 0.00 26 1010.6
20260503215517 16 270 11.3 35.4 0.00 0.00 0.00 26 1010.6
20260503215036 16 293 11.3 17.7 0.00 0.00 0.00 27 1010.6
20260503214516 16 270 12.9 32.2 0.00 0.00 0.00 28 1010.6
20260503214017 16 270 12.9 29.0 0.00 0.00 0.00 27 1010.5
20260503213516 16 315 11.3 24.1 0.00 0.00 0.00 26 1010.6
20260503213037 16 315 11.3 27.4 0.00 0.00 0.00 27 1010.5
20260503212517 16 315 12.9 24.1 0.00 0.00 0.00 27 1010.6
20260503212016 16 338 11.3 20.9 0.00 0.00 0.00 27 1010.5
20260503211516 16 338 12.9 32.2 0.00 0.00 0.00 27 1010.5
20260503211036 16 270 11.3 25.7 0.00 0.00 0.00 28 1010.5
20260503210518 16 270 14.5 29.0 0.00 0.00 0.00 27 1010.5
20260503210016 16 315 11.3 27.4 0.00 0.00 0.00 28 1010.4
20260503205516 16 315 12.9 22.5 0.00 0.00 0.00 27 1010.4
20260503205018 16 315 11.3 29.0 0.00 0.00 0.00 28 1010.4
20260503204516 16 315 12.9 29.0 0.00 0.00 0.00 27 1010.4
20260503204016 16 270 16.1 40.2 0.00 0.00 0.00 27 1010.4
20260503203517 16 315 11.3 27.4 0.00 0.00 0.00 28 1010.4
20260503203018 16 315 12.9 25.7 0.00 0.00 0.00 27 1010.4
20260503202538 16 270 14.5 32.2 0.00 0.00 0.00 29 1010.5
20260503202016 16 270 12.9 29.0 0.00 0.00 0.00 27 1010.5
20260503201537 16 270 12.9 25.7 0.00 0.00 0.00 27 1010.6
20260503201017 16 315 9.7 27.4 0.00 0.00 0.00 29 1010.6
20260503200517 16 315 9.7 22.5 0.00 0.00 0.00 28 1010.6
20260503200016 16 338 11.3 19.3 0.00 0.00 0.00 28 1010.7
20260503195538 16 270 16.1 29.0 0.00 0.00 0.00 28 1010.8